Regional Weather Roundup
Issued by NWS Newport/Morehead, NC

Current Version | Previous Version | Graphics & Text | Print | Product List | Glossary On
Versions: 1 2 3 4 5 6 7 8 9 10 11 12 13 14 15 16 17 18 19 20 21 22 23 24 25 26 27 28 29 30 31 32 33 34 35 36 37 38 39 40 41 42 43 44 45 46 47 48 49 50
000 ASUS42 KMHX 222325 RWRMHX WEATHER ROUNDUP FOR EASTERN NORTH CAROLINA NATIONAL WEATHER SERVICE NEWPORT/MOREHEAD CITY NC 600 PM EST SUN JAN 22 2017 NOTE: "FAIR" INDICATES FEW OR NO CLOUDS BELOW 12,000 FEET WITH NO SIGNIFICANT WEATHER AND/OR OBSTRUCTIONS TO VISIBILITY NCZ015>017-031-032-045>047-102-103-230000- NORTH COAST CITY SKY/WX TMP DP RH WIND PRES REMARKS EDENTON CLOUDY 56 55 96 N6 29.60S FOG ELIZABETH CITY CLOUDY 52 51 97 N7 29.59F FOG KITTY HAWK NOT AVBL MANTEO FOG 49 49 100 N6 29.60R VSB 1 $$ NCZ045>047-081-094-103-104-230000- CENTRAL COAST CITY SKY/WX TMP DP RH WIND PRES REMARKS FRISCO CLOUDY 58 55 90 NW5 29.58R FOG $$ NCZ095-097-098-100-101-230000- SOUTHERN COAST CITY SKY/WX TMP DP RH WIND PRES REMARKS BEAUFORT CLOUDY 61 59 93 E3 29.55F CEDAR ISLAND NOT AVBL JACKSONVILLE CLOUDY 60 60 100 NE3 29.53F PINEY ISLAND MOCLDY N/A N/A N/A N3 29.57S WILMINGTON CLOUDY 60 59 96 CALM 29.53F $$ NCZ011>013-027>030-043-044-078>080-089-090>093-098-230000- COASTAL PLAIN CITY SKY/WX TMP DP RH WIND PRES REMARKS AHOSKIE DRIZZLE 51 51 99 N5 29.60F CLINTON CLOUDY 60 60 100 NE5 29.54F FOG ELIZABETHTOWN CLOUDY 61 60 98 CALM 29.48F GOLDSBORO CLOUDY 58 58 100 NE5 29.54F GREENVILLE CLOUDY 57 55 94 N6 29.61F HAVELOCK CLOUDY 61 58 90 NE6 29.56F KENANSVILLE CLOUDY 61 59 94 NE3 29.55S KINSTON CLOUDY 59 57 94 N5 29.56F NEW BERN CLOUDY 60 57 89 E3 29.56F RICHLANDS CLOUDY 60 59 96 NE5 29.55F ROCKY MOUNT CLOUDY 55 55 100 N6 29.57F WASHINGTON CLOUDY 58 56 94 N5 N/A WHITEVILLE CLOUDY 60 59 95 E3 29.47F $$ AMZ130-135-150-152-154-156-158-170-250-252-270-ANZ085-086-088-633-658-670-230000- MARINE OBSERVATIONS STATION/POSITION TIME TEMP WIND PRES WAVE SWELL AIR SEA DIR/SP/G HT/PER HT/PER (UTC) (F) (DEG/KT/KT) (MB) (FT/S) (FT/S) CHESAPEAKE LIGHT NOT AVBL 64 E VA BEACH 2250 51 56 280/ 12/ 14 1000.9 5/11 3/11 DUCK 2300 47 46 340/ 9/ 11 1001.6 2 E DUCK 2300 47 N/A 3/13 2/13 OREGON INLET 2300 48 51 360/ 5/ 8 1001.8 13E OREGON INLT NOT AVBL HATTERAS CG 2300 57 54 270/ 2/ 7 1001.2 DIAMOND BUOY 2250 65 71 300/ 12/ 14 1001.2 4/11 3/11 CAPE LOOKOUT 2300 60 360/ 5/ 6 1000.6 BEAUFORT LAB 2300 60 52 110/ 2/ 4 999.9 30 SE NEW RVR IN 2308 61 67 80/ 2/ 8 1000.8 30 SE NEW RVR IN 2313 67 N/A 5/ 6 2/13 27 SE WRIGHTSVLE 2308 65 66 170/ 8/ 12 998.8 5 SE WRIGHTSVLE 2308 56 60/ 8/ 12 999.3 225 S CAPE HAT 2250 73 71 180/ 16/ 19 1002.8 10/ 8 7/13 41 SE CHARLESTON 2250 66 67 130/ 12/ 14 998.1 5/ 8 5/ 8 $$

USA.gov is the U.S. government's official web portal to all federal, state and local government web resources and services.